Location: Arthurs Seat
(13.1500°N, 59.6000°W)
Time: 17:53:40
(UTC+00:00)

CENTAUR R/B - Pass Details

Date: 25 August 2019
Orbit: 780 x 1408 km, 63.4° (Epoch: 10 August)

Event Time Altitude Azimuth Distance (km) Brightness Sun altitude
Rises 22:51:16 0° 331° (NNW) 4,396 6.6 -9.7°
Reaches altitude 10° 22:54:08 10° 329° (NNW) 3,458 6.1 -10.4°
Maximum altitude 23:02:42 68° 248° (WSW) 1,498 3.6 -12.4°
Drops below altitude 10° 23:11:07 10° 167° (SSE) 3,396 5.0 -14.4°
Sets 23:13:56 0° 164° (SSE) 4,313 5.6 -15.1°
